Regional Weather Roundup
Issued by NWS Green Bay, WI

Home | Current Version | Previous Version | Graphics & Text | Print | Product List | Glossary Off
Versions: 1 2 3 4 5 6 7 8 9 10 11 12 13 14 15 16 17 18 19 20 21 22 23 24 25 26 27 28 29 30 31 32 33 34 35 36 37 38 39 40 41 42 43 44 45 46 47 48 49 50

000
ASUS43 KGRB 210200
RWRGRB

NORTH-CENTRAL AND NORTHEAST WISCONSIN REGIONAL WEATHER ROUNDUP
NATIONAL WEATHER SERVICE GREEN BAY WI
900 PM CDT FRI OCT 20 2017

WIZ005-009-010>012-018-019-210300-
NORTH CENTRAL WISCONSIN

CITY           SKY/WX    TMP DP  RH WIND       PRES   REMARKS
IRONWOOD       CLOUDY    68  42  38 S14G24    29.79S
MANITOWISH WTR NOT AVBL
ARBOR VITAE    NOT AVBL
EAGLE RIVER    NOT AVBL
LAND O LAKES   PTCLDY    64  42  44 S8        29.90S
RHINELANDER    CLOUDY    65  43  44 S13G20    29.90F
PHILLIPS       CLOUDY    64  44  48 S10G21    29.84S
ANTIGO         PTCLDY    55  44  68 SE8       29.94S
TOMAHAWK       CLOUDY    58  42  54 S3        29.90S
MERRILL        CLOUDY    64  44  49 S3        29.90F
$$

WIZ013-073-210300-
NORTHEAST WISCONSIN

CITY           SKY/WX    TMP DP  RH WIND       PRES   REMARKS
IRON MOUNTAIN  PTCLDY    63  46  54 S8        29.91S
MARINETTE      CLOUDY    58  52  80 S5        29.95F
$$

WIZ017-030-035>037-045-210300-
CENTRAL WISCONSIN

CITY           SKY/WX    TMP DP  RH WIND       PRES   REMARKS
MEDFORD        NOT AVBL
WAUSAU         CLOUDY    62  44  51 S9        29.89F
MOSINEE        PTCLDY    61  45  55 SE8       29.92S
MARSHFIELD     MOCLDY    59  44  57 S9        29.88F
WISC RAPIDS    PTCLDY    65  46  50 S9        29.91F
STEVENS POINT  NOT AVBL
WAUPACA        NOT AVBL
SHAWANO        CLOUDY    64  46  53 CALM      29.94R
CLINTONVILLE   NOT AVBL
WAUTOMA        CLOUDY    62  46  55 S7        29.94S
$$

WIZ038-039-048-051-210300-
FOX VALLEY

CITY           SKY/WX    TMP DP  RH WIND       PRES   REMARKS
NWS GREEN BAY  PTCLDY    64  51  62 S8        29.95F
APPLETON       MOCLDY    63  45  51 S10       29.94
OSHKOSH        CLOUDY    58  49  72 S8        29.95F
FOND DU LAC    CLOUDY    62  47  57 S7        29.96F
$$

WIZ022-050-052-210300-
EAST CENTRAL WISCONSIN

CITY           SKY/WX    TMP DP  RH WIND       PRES   REMARKS
EPHRAIM        FAIR      59  52  76 S10       29.96S
WASHINGTON ISL NOT AVBL
STURGEON BAY   CLOUDY    59  52  77 S12       29.97S
MANITOWOC      NOT AVBL
SHEBOYGAN      CLOUDY    58  52  80 S7        29.99S
$$

LMZ563-521-522-541>543-210300-
LAKESHORE

STATION/POSITION TIME  TEMP    WIND        PRES    VSBY  WAVE
                       AIR SEA DIR/SP/G                  HT/PER
                 (UTC) (F)     (DEG/KT/KT) (MB)    (MI)  (FT/S)
SHEBOYGAN LKSHOR 0100   61     180/ 17/ 18 1015.5F
KEWAUNEE LKSHORE 0130   56     180/ 11/ 12 1014.4S
NORTHPORT PIER   0140   60     160/  7/ 13 1014.6S
N MID LAKE BUOY  0050   61 58  190/ 17/ 21 1015.4R         5/ 6
S GREEN BAY BUOY 0100   62 58  170/ 10/ 10 1014.1
SISTER BAY LKSHO 0104   61     170/ 15/ 17   N/A
MENOMINEE LKSHOR 0130   59     170/  9/ 12 1013.8F
$$



USA.gov is the U.S. government's official web portal to all federal, state and local government web resources and services.